This demonstration page uses our WeatherBlox Daily Observations layout. Learn more.

Left ArrowRight Arrow

39.92423, -83.80882

Hourly Observations for August 22, 2020

Temp ( °F °C ) Dew Point ( °F °C ) Humidity (%) Winds ( mph kmh ) Pressure ( in mb ) Visibility ( mi km ) Precip ( " mm )
12:56 am 00:56 Clear 64 17.8 64 17.8 100 100 N N/A 29.94 1014 10 16 N/A
1:56 am 01:56 Clear 63 17.2 63 17.2 100 100 N N/A 29.94 1014 10 16 N/A
2:56 am 02:56 Clear 61 16.1 61 16.1 100 100 N N/A 29.94 1014 8 13 N/A
3:56 am 03:56 Clear 61 16.1 61 16.1 100 100 N N/A 29.94 1014 7 11 N/A
4:56 am 04:56 Clear with Mist and Fog 61 16.1 61 16.1 100 100 N N/A 29.94 1014 5 8 N/A
5:20 am 05:20 Clear with Mist and Fog 61 16 61 16 100 100 N N/A 29.95 1014 2 3 N/A
5:29 am 05:29 Clear with Mist and Fog 61 16 61 16 100 100 N N/A 29.95 1014 3 5 N/A
5:56 am 05:56 Clear with Mist and Fog 59 15 59 15 100 100 N N/A 29.95 1014 2 3 N/A
5:59 am 05:59 Clear with Mist and Fog 61 16 61 16 100 100 N N/A 29.95 1014 1 1 N/A
6:07 am 06:07 Clear with Mist and Fog 61 16 61 16 100 100 N N/A 29.95 1014 1 2 N/A
6:09 am 06:09 Clear with Mist and Fog 61 16 61 16 100 100 N N/A 29.95 1014 5 8 N/A
6:37 am 06:37 Clear with Mist and Fog 59 15 59 15 100 100 N N/A 29.96 1015 2 3 N/A
6:52 am 06:52 Clear with Mist and Fog 59 15 59 15 100 100 N N/A 29.96 1015 6 10 N/A
6:56 am 06:56 Sunny with Mist and Fog 59 15 59 15 100 100 N N/A 29.96 1015 6 10 N/A
7:56 am 07:56 Sunny 61 16.1 61 16.1 100 100 N N/A 29.97 1015 10 16 N/A
8:56 am 08:56 Mostly Cloudy 68 20 66 18.9 93 93 N 3 6 29.99 1016 10 16 N/A
9:56 am 09:56 Mostly Sunny 75 23.9 65 18.3 71 71 NNE 6 9 30.00 1016 10 16 N/A
10:56 am 10:56 Mostly Sunny 78 25.6 67 19.4 69 69 ENE 8 13 30.00 1016 10 16 N/A
11:56 am 11:56 Mostly Cloudy 79 26.1 69 20.6 72 72 VRB 5 7 29.99 1016 10 16 N/A
12:56 pm 12:56 Sunny 80 26.7 70 21.1 71 71 VRB 3 6 29.97 1015 10 16 N/A
1:56 pm 13:56 Sunny 82 27.8 68 20 63 63 NE 7 11 29.96 1015 10 16 N/A
2:56 pm 14:56 Mostly Sunny 83 28.3 68 20 61 61 E 5 7 29.96 1015 10 16 N/A
3:56 pm 15:56 Sunny 80 26.7 69 20.6 69 69 S 6 9 29.96 1015 10 16 N/A
4:03 pm 16:03 Sunny with Nearby Thunderstorms 79 26 70 21 74 74 S 8 13 29.93 1014 10 16 N/A
4:18 pm 16:18 Sunny 75 24 70 21 83 83 S 9 15 29.94 1014 10 16 N/A
4:32 pm 16:32 Partly Cloudy with Nearby Thunderstorms 73 23 70 21 89 89 VRB 5 7 29.95 1014 10 16 N/A
4:54 pm 16:54 Mostly Cloudy with Nearby Thunderstorms 68 20 66 19 94 94 E 16 26 29.98 1015 10 16 0.00 0.00
4:56 pm 16:56 Mostly Cloudy with Nearby Thunderstorms 68 20 66 18.9 93 93 E 16 26 30.00 1016 10 16 0.00 0.00
5:25 pm 17:25 Cloudy with Light Rain 68 20 68 20 100 100 E 7 11 29.95 1014 10 16 0.01 0.25
5:56 pm 17:56 Cloudy with Light Rain 68 20 68 20 100 100 VRB 3 6 29.96 1015 10 16 0.02 0.51
6:56 pm 18:56 Sunny 70 21.1 70 21.1 100 100 S 8 13 29.97 1015 10 16 0.01 0.25
7:56 pm 19:56 Sunny 70 21.1 70 21.1 100 100 S 5 7 29.98 1015 10 16 N/A
8:56 pm 20:56 Clear 67 19.4 67 19.4 100 100 N N/A 29.98 1015 9 14 N/A
9:56 pm 21:56 Clear with Mist and Fog 65 18.3 65 18.3 100 100 N N/A 30.00 1016 5 8 N/A
10:18 pm 22:18 Clear with Mist and Fog 66 19 66 19 100 100 N N/A 30.00 1016 2 3 N/A
10:26 pm 22:26 Mostly Cloudy with Mist and Fog 64 18 64 18 100 100 N N/A 30.00 1016 1 1 N/A
10:36 pm 22:36 Clear with Mist and Fog 64 18 64 18 100 100 ESE 3 6 30.00 1016 1 2 N/A
10:39 pm 22:39 Clear with Mist and Fog 64 18 64 18 100 100 ESE 3 6 30.00 1016 3 5 N/A
10:56 pm 22:56 Clear with Mist and Fog 66 18.9 66 18.9 100 100 SSE 5 7 30.00 1016 5 8 N/A
11:26 pm 23:26 Clear with Mist and Fog 64 18 64 18 100 100 N N/A 30.00 1016 2 3 N/A
11:29 pm 23:29 Clear with Mist and Fog 64 18 64 18 100 100 N N/A 30.00 1016 1 1 N/A
11:42 pm 23:42 Clear with Mist and Fog 64 18 64 18 100 100 N N/A 30.00 1016 1 2 N/A
11:45 pm 23:45 Clear with Mist and Fog 64 18 64 18 100 100 N N/A 30.00 1016 3 5 N/A
11:56 pm 23:56 Clear with Mist and Fog 65 18.3 65 18.3 100 100 N N/A 30.00 1016 4 6 N/A

Powered by AerisWeather